Date String (YYYY-MM-DD hh:mm:ss) UTC,Instrument flags,absolute air pressure of the measurement (hPa),sample flow rate (lpm),inlet stack bypass flow (lpm),air temperature of the measurement (°C),ambient temperature measured by the external sensor (°C),aerosol sample conditioner tube jacket temperature (°C),OPC LED temperature (°C),internal box temperature (°C),relative humidity of the measurement (%),span deviation,mass concentration of particles derived from Lorenz-Mie calculation of OPC scattering (μg/m³),mass concentration of particles derived from Lorenz-Mie calculation of OPC scattering (μg/m³),mass concentration of particles derived from Lorenz-Mie calculation of OPC scattering (μg/m³)
DateTimeUTC,F1_M11,P_M11,Q1_M11,Q2_M11,T1_M11,T2_M11,T3_M11,T4_M11,T5_M11,U1_M11,ZSPAN_M11,X2_M11,X0_M11,X1_M11
2024-05-24 12:00:00,SystemResetWarning,0825.7,4.99,000.00,025.6,024.7,000.0,034.0,027.3,010.3,0000.0,0001.56,0008.38,0000.61
2024-05-24 12:01:00,SystemResetWarning,0825.7,5.00,000.00,025.6,024.7,000.0,034.0,027.3,010.3,0000.0,0001.60,0008.77,0000.61
2024-05-24 12:02:00,SystemResetWarning,0825.7,5.01,000.00,025.6,024.7,000.0,034.0,027.3,010.2,0000.0,0001.59,0008.61,0000.62
2024-05-24 12:03:00,SystemResetWarning,0825.6,5.00,000.00,025.6,024.7,000.0,034.0,027.3,010.2,0000.0,0001.57,0008.59,0000.63
2024-05-24 12:04:00,SystemResetWarning,0825.6,4.99,000.00,025.5,024.7,000.0,034.0,027.3,010.2,0000.0,0001.59,0008.11,0000.64
2024-05-24 12:05:00,SystemResetWarning,0825.7,4.99,000.00,025.5,024.7,000.0,034.0,027.3,010.3,0000.0,0001.56,0008.49,0000.63
2024-05-24 12:06:00,SystemResetWarning,0825.8,5.01,000.00,025.5,024.6,000.0,034.0,027.2,010.3,0000.0,0001.54,0008.47,0000.63
2024-05-24 12:07:00,SystemResetWarning,0825.8,5.01,000.00,025.5,024.6,000.0,034.0,027.2,010.3,0000.0,0001.54,0007.81,0000.63
2024-05-24 12:08:00,SystemResetWarning,0825.9,4.99,000.00,025.5,024.6,000.0,034.0,027.2,010.3,0000.0,0001.58,0007.94,0000.63
2024-05-24 12:09:00,SystemResetWarning,0825.9,4.99,000.00,025.4,024.6,000.0,033.9,027.2,010.4,0000.0,0001.55,0007.86,0000.63
2024-05-24 12:10:00,SystemResetWarning,0825.9,5.02,000.00,025.4,024.5,000.0,033.9,027.2,010.4,0000.0,0001.56,0008.26,0000.63
2024-05-24 12:11:00,SystemResetWarning,0825.9,4.99,000.00,025.4,024.5,000.0,033.9,027.2,010.5,0000.0,0001.48,0008.18,0000.63
2024-05-24 12:12:00,SystemResetWarning,0825.9,4.99,000.00,025.4,024.5,000.0,033.9,027.2,010.6,0000.0,0001.44,0008.52,0000.64
2024-05-24 12:13:00,SystemResetWarning,0825.9,5.00,000.00,025.4,024.5,000.0,033.9,027.2,010.6,0000.0,0001.47,0009.34,0000.65
2024-05-24 12:14:00,SystemResetWarning,0825.9,5.01,000.00,025.4,024.5,000.0,033.9,027.2,010.6,0000.0,0001.55,0010.25,0000.64
2024-05-24 12:15:00,SystemResetWarning,0825.9,5.00,000.00,025.4,024.5,000.0,033.9,027.1,010.6,0000.0,0001.56,0010.54,0000.63
2024-05-24 12:16:00,SystemResetWarning,0825.9,5.00,000.00,025.3,024.5,000.0,033.9,027.1,010.7,0000.0,0001.60,0010.09,0000.64
2024-05-24 12:17:00,SystemResetWarning,0825.9,5.01,000.00,025.3,024.5,000.0,033.8,027.1,010.8,0000.0,0001.62,0010.20,0000.64
2024-05-24 12:18:00,SystemResetWarning,0825.9,4.99,000.00,025.3,024.5,000.0,033.8,027.1,010.9,0000.0,0001.64,0011.37,0000.64
2024-05-24 12:19:00,SystemResetWarning,0825.9,4.99,000.00,025.3,024.4,000.0,033.8,027.1,010.9,0000.0,0001.63,0011.34,0000.64
2024-05-24 12:20:00,SystemResetWarning,0825.9,4.99,000.00,025.3,024.4,000.0,033.8,027.1,010.8,0000.0,0001.70,0011.58,0000.64
2024-05-24 12:21:00,SystemResetWarning,0825.9,5.00,000.00,025.3,024.4,000.0,033.8,027.1,010.9,0000.0,0001.78,0011.10,0000.65
2024-05-24 12:22:00,SystemResetWarning,0825.9,5.01,000.00,025.3,024.5,000.0,033.7,027.1,010.7,0000.0,0001.84,0012.16,0000.65
2024-05-24 12:23:00,SystemResetWarning,0825.9,5.00,000.00,025.3,024.5,000.0,033.7,027.1,010.7,0000.0,0001.91,0011.98,0000.65
2024-05-24 12:24:00,SystemResetWarning,0825.9,5.01,000.00,025.3,024.5,000.0,033.7,027.1,010.7,0000.0,0001.90,0010.96,0000.64
2024-05-24 12:25:00,SystemResetWarning,0825.9,5.00,000.00,025.3,024.5,000.0,033.7,027.1,010.7,0000.0,0001.78,0010.80,0000.63
2024-05-24 12:26:00,SystemResetWarning,0826.0,5.01,000.00,025.3,024.5,000.0,033.7,027.1,010.8,0000.0,0001.73,0010.74,0000.63
2024-05-24 12:27:00,SystemResetWarning,0825.9,5.01,000.00,025.3,024.4,000.0,033.7,027.1,010.8,0000.0,0001.70,0010.80,0000.62
2024-05-24 12:28:00,SystemResetWarning,0825.9,5.00,000.00,025.3,024.4,000.0,033.7,027.0,010.7,0000.0,0001.72,0010.91,0000.63
2024-05-24 12:29:00,SystemResetWarning,0825.9,4.99,000.00,025.3,024.4,000.0,033.7,027.0,010.8,0000.0,0001.63,0009.90,0000.63
2024-05-24 12:30:00,SystemResetWarning,0826.0,4.99,000.00,025.2,024.4,000.0,033.7,027.0,010.8,0000.0,0001.60,0009.68,0000.63
2024-05-24 12:31:00,SystemResetWarning,0825.9,5.00,000.00,025.2,024.3,000.0,033.7,027.0,010.8,0000.0,0001.54,0009.44,0000.64
2024-05-24 12:32:00,SystemResetWarning,0825.9,5.01,000.00,025.2,024.3,000.0,033.7,027.0,010.9,0000.0,0001.48,0009.36,0000.65
2024-05-24 12:33:00,SystemResetWarning,0825.9,5.00,000.00,025.2,024.3,000.0,033.7,027.0,011.0,0000.0,0001.44,0009.94,0000.65
2024-05-24 12:34:00,SystemResetWarning,0825.9,4.99,000.00,025.2,024.3,000.0,033.7,026.9,011.0,0000.0,0001.40,0008.91,0000.65
2024-05-24 12:35:00,SystemResetWarning,0825.9,4.99,000.00,025.2,024.3,000.0,033.7,026.9,010.9,0000.0,0001.40,0008.94,0000.67
2024-05-24 12:36:00,SystemResetWarning,0825.9,5.00,000.00,025.1,024.3,000.0,033.6,026.9,011.0,0000.0,0001.42,0008.91,0000.68
2024-05-24 12:37:00,SystemResetWarning,0825.9,5.00,000.00,025.1,024.3,000.0,033.6,026.9,011.1,0000.0,0001.50,0008.96,0000.68
2024-05-24 12:38:00,SystemResetWarning,0825.9,5.00,000.00,025.1,024.2,000.0,033.6,026.9,011.2,0000.0,0001.49,0008.76,0000.68
2024-05-24 12:39:00,SystemResetWarning,0825.9,5.01,000.00,025.1,024.2,000.0,033.6,026.9,011.3,0000.0,0001.46,0009.75,0000.67
2024-05-24 12:40:00,SystemResetWarning,0825.8,4.99,000.00,025.1,024.2,000.0,033.6,026.9,011.3,0000.0,0001.50,0010.73,0000.67
2024-05-24 12:41:00,SystemResetWarning,0825.9,4.99,000.00,025.1,024.2,000.0,033.6,026.9,011.1,0000.0,0001.53,0010.29,0000.66
2024-05-24 12:42:00,SystemResetWarning,0826.0,4.99,000.00,025.1,024.2,000.0,033.6,026.8,011.3,0000.0,0001.56,0010.44,0000.66
2024-05-24 12:43:00,SystemResetWarning,0825.9,5.01,000.00,025.1,024.2,000.0,033.6,026.8,011.2,0000.0,0001.54,0010.59,0000.65
2024-05-24 12:44:00,SystemResetWarning,0825.9,5.00,000.00,025.1,024.2,000.0,033.6,026.8,011.1,0000.0,0001.52,0009.43,0000.64
2024-05-24 12:45:00,SystemResetWarning,0825.9,5.00,000.00,025.1,024.2,000.0,033.5,026.8,011.2,0000.0,0001.55,0009.92,0000.64
2024-05-24 12:46:00,SystemResetWarning,0825.9,5.01,000.00,025.0,024.2,000.0,033.5,026.8,011.1,0000.0,0001.47,0010.48,0000.63
2024-05-24 12:47:00,SystemResetWarning,0825.9,5.01,000.00,025.0,024.2,000.0,033.5,026.8,011.0,0000.0,0001.52,0010.82,0000.63
2024-05-24 12:48:00,SystemResetWarning,0825.9,5.01,000.00,025.0,024.2,000.0,033.5,026.8,011.0,0000.0,0001.52,0010.04,0000.63
2024-05-24 12:49:00,SystemResetWarning,0825.9,5.00,000.00,025.0,024.2,000.0,033.5,026.8,011.3,0000.0,0001.53,0010.15,0000.63
2024-05-24 12:50:00,SystemResetWarning,0825.9,4.99,000.00,025.0,024.2,000.0,033.5,026.8,011.4,0000.0,0001.54,0010.12,0000.64
2024-05-24 12:51:00,SystemResetWarning,0825.9,4.99,000.00,025.0,024.2,000.0,033.5,026.8,011.2,0000.0,0001.54,0008.94,0000.63
2024-05-24 12:52:00,SystemResetWarning,0825.9,5.00,000.00,025.0,024.2,000.0,033.5,026.8,011.0,0000.0,0001.50,0009.03,0000.65
2024-05-24 12:53:00,SystemResetWarning,0825.9,5.01,000.00,025.0,024.2,000.0,033.5,026.8,011.0,0000.0,0001.45,0008.81,0000.66
2024-05-24 12:54:00,SystemResetWarning,0825.9,5.01,000.00,025.0,024.1,000.0,033.4,026.7,011.1,0000.0,0001.47,0008.59,0000.65
2024-05-24 12:55:00,SystemResetWarning,0825.9,5.00,000.00,025.0,024.1,000.0,033.4,026.7,011.0,0000.0,0001.48,0009.06,0000.66
2024-05-24 12:56:00,SystemResetWarning,0825.9,5.00,000.00,025.0,024.1,000.0,033.4,026.7,011.2,0000.0,0001.43,0009.28,0000.66
2024-05-24 12:57:00,SystemResetWarning,0825.9,4.99,000.00,025.0,024.1,000.0,033.4,026.7,011.3,0000.0,0001.44,0008.65,0000.66
2024-05-24 12:58:00,SystemResetWarning,0825.9,5.00,000.00,025.0,024.1,000.0,033.4,026.7,011.1,0000.0,0001.37,0008.53,0000.65
2024-05-24 12:59:00,SystemResetWarning,0825.9,5.00,000.00,025.0,024.1,000.0,033.4,026.7,011.3,0000.0,0001.28,0009.05,0000.64
